Home   Weather   Adak   Past weeks

Flag for USA Past Weather in Adak, Alaska, USA — Yesterday and Last 2 Weeks

Now
37 °F

Low clouds.


Feels Like: 37 °F
Forecast: 38 / 43 °F
Wind: No wind

Location: Adak

Current Time: Apr 23, 2017 at 3:09:52 am

Latest Report: Apr 23, 2017 at 2:36 am


Visibility: 5 mi

Pressure: 29.16 "Hg

Humidity: 75%

Dew Point: 30 °F

Location of AdakLocation

Past Weather in Adak — Graph

°F

Adak Temperature Yesterday

Maximum temperature yesterday: 43 °F (at 1:16 pm)
Minimum temperature yesterday: 39 °F (at 12:16 am)
Average temperature yesterday: 40 °F

High & Low Weather Summary for the Past Weeks

 TemperatureHumidityPressure
High45 °F (Apr 11, 1:16 pm)81% (Apr 22, 10:56 am)30.28 "Hg (Apr 22, 10:56 am)
Low27 °F (Apr 17, 4:16 am)42% (Apr 16, 5:16 pm)29.14 "Hg (Apr 9, 8:36 am)
Average39 °F64%29.68 "Hg
* Reported Apr 8 1:36 am — Apr 23 1:56 am, Adak, Weather by CustomWeather, © 2017

Note: Actual official high and low records may vary slightly from our data, if they occured in-between our weather recording intervals... More about our weather records

Advertising

Adak Weather History for the Previous 24 Hours

Scroll right to see more
 ConditionsComfort  
Time TempWeatherWind HumidityBarometerVisibility
1:56 am
Sun, Apr 23
37 °FLow clouds.No wind75%29.16 "Hg7 mi
1:36 am39 °FLow clouds.No wind70%29.17 "Hg5 mi
1:16 am39 °FMostly cloudy.No wind70%29.17 "Hg5 mi
12:56 am39 °FMostly cloudy.3 mph70%29.17 "Hg3 mi
12:36 am39 °FMostly cloudy.3 mph75%29.17 "Hg5 mi
12:16 am39 °FMostly cloudy.3 mph75%29.17 "Hg5 mi
11:56 pm
Sat, Apr 22
39 °FMostly cloudy.5 mph75%29.18 "Hg9 mi
11:36 pm39 °FMostly cloudy.6 mph75%29.18 "Hg9 mi
11:16 pm39 °FOvercast.7 mph75%29.18 "Hg10 mi
10:56 pm39 °FOvercast.6 mph75%29.18 "Hg7 mi
10:16 pm39 °FOvercast.5 mph70%29.17 "Hg10 mi
9:56 pm39 °FOvercast.5 mph70%29.17 "Hg10 mi
9:36 pm39 °FOvercast.5 mph75%29.17 "Hg7 mi
9:16 pm39 °FOvercast.6 mph75%29.17 "Hg9 mi
8:56 pm39 °FMostly cloudy.6 mph75%29.17 "Hg5 mi
8:36 pm39 °FMore clouds than sun.7 mph75%29.17 "Hg2 mi
8:16 pm39 °FMore clouds than sun.8 mph75%29.18 "Hg3 mi
7:56 pm39 °FMostly cloudy.9 mph75%29.18 "Hg6 mi
7:36 pm41 °FOvercast.12 mph70%29.17 "Hg8 mi
6:56 pm43 °FMostly cloudy.8 mph66%29.17 "Hg10 mi
6:36 pm43 °FOvercast.8 mph66%29.17 "Hg10 mi
6:16 pm43 °FMostly cloudy.7 mph71%29.17 "Hg10 mi
5:56 pm43 °FMostly cloudy.8 mph66%29.18 "Hg10 mi
5:36 pm43 °FOvercast.8 mph71%29.18 "Hg10 mi
4:56 pm43 °FOvercast.6 mph71%29.18 "Hg10 mi
4:36 pm43 °FMostly cloudy.3 mph66%29.19 "Hg10 mi
4:16 pm43 °FOvercast.3 mph66%29.18 "Hg4 mi
3:56 pm41 °FOvercast.3 mph70%29.19 "Hg8 mi
3:36 pm41 °FOvercast.3 mph70%29.19 "Hg7 mi
3:16 pm41 °FOvercast.5 mph70%29.19 "Hg3 mi
2:56 pm41 °FMostly cloudy.3 mph70%29.19 "Hg10 mi
2:36 pm43 °FMostly cloudy.3 mph71%29.19 "Hg10 mi
2:16 pm43 °FMostly cloudy.6 mph71%29.19 "Hg10 mi
1:56 pm43 °FMostly cloudy.6 mph71%29.20 "Hg10 mi
1:36 pm43 °FMostly cloudy.6 mph66%29.20 "Hg10 mi
1:16 pm43 °FMore clouds than sun.8 mph71%29.20 "Hg10 mi
12:56 pm41 °FCloudy.7 mph76%29.20 "Hg10 mi
12:36 pm41 °FBroken clouds.7 mph76%29.20 "Hg10 mi
12:16 pm41 °FMostly cloudy.9 mph76%29.20 "Hg10 mi
11:56 am39 °FMostly cloudy.8 mph81%29.20 "Hg10 mi
11:36 am39 °FMostly cloudy.8 mph81%29.20 "Hg5 mi
11:16 am39 °FMore clouds than sun.7 mph81%29.20 "Hg3 mi
10:56 am39 °FMore clouds than sun.6 mph81%29.20 "Hg3 mi
10:36 am39 °FMostly cloudy.6 mph70%29.20 "Hg2 mi
9:36 am39 °FMostly cloudy.6 mph75%29.20 "Hg10 mi
9:16 am39 °FOvercast.6 mph70%29.19 "Hg5 mi
8:56 am39 °FMostly cloudy.8 mph70%29.19 "Hg10 mi
8:36 am39 °FMostly cloudy.7 mph70%29.19 "Hg10 mi
7:56 am39 °FMostly cloudy.8 mph70%29.18 "Hg10 mi
7:36 am39 °FMostly cloudy.7 mph70%29.18 "Hg10 mi
7:16 am39 °FMostly cloudy.8 mph70%29.18 "Hg10 mi
6:56 am39 °FMostly cloudy.12 mph70%29.18 "Hg10 mi
6:36 am39 °FMostly cloudy.10 mph70%29.18 "Hg9 mi
6:16 am39 °FMostly cloudy.10 mph70%29.17 "Hg9 mi
5:56 am39 °FOvercast.15 mph70%29.17 "Hg10 mi
5:36 am39 °FMostly cloudy.5 mph70%29.17 "Hg10 mi
4:56 am39 °FMostly cloudy.6 mph70%29.17 "Hg10 mi
4:36 am39 °FMostly cloudy.8 mph70%29.17 "Hg10 mi
4:16 am39 °FMostly cloudy.9 mph70%29.17 "Hg9 mi
3:56 am39 °FOvercast.13 mph75%29.17 "Hg10 mi
Weather by CustomWeather, © 2017

See weather overviewHow to use our weather pages